Location: Cumminsville
(38.7181°N, 84.1049°W)
Time: 12:34:43
(UTC+00:00)

Daily predictions for brighter satellites

Satellite Brightness Start Highest point End
(mag) Time Altitude Azimuth Time Altitude Azimuth Time Altitude Azimuth
Cosmos 1743 2.8 12:01:19 10° S 12:04:30 61° E 12:07:42 10° NNE
USA 267 4.0 12:01:43 10° NE 12:08:10 60° SE 12:14:35 10° SSW
IRIDIUM 103 4.3 12:03:23 10° S 12:08:34 69° W 12:13:46 10° N
Meteor 1-26 Rocket 4.4 12:04:12 10° NNW 12:09:34 54° W 12:15:05 10° S
Cosmos 1814 Rocket 4.0 12:04:52 10° SSW 12:10:01 65° WNW 12:15:16 10° NNE
Cosmos 2219 Rocket 3.5 12:05:07 10° N 12:10:22 38° ENE 12:15:33 10° SE
NOSS 2-1 (C) 4.5 12:06:43 10° NW 12:10:24 36° WSW 12:15:17 10° S
IRS-1C 4.5 12:06:46 10° NNE 12:12:06 74° ESE 12:17:24 10° S
Cosmos 2322 Rocket 2.4 12:06:49 10° NNW 12:12:32 76° ENE 12:18:11 10° SSE
CBERS-1 4.3 12:08:06 10° N 12:12:56 45° WNW 12:17:45 10° SW
COSMO-SKYMED 1 4.1 12:11:58 10° SW 12:14:36 16° W 12:17:15 10° NW
Cosmos 1602 Rocket 3.9 12:10:58 10° S 12:15:22 75° E 12:19:49 10° N
Cosmos 2058 Rocket 3.7 12:11:27 10° NNW 12:15:31 36° W 12:19:32 10° SSW
Cosmos 2266 Rocket 4.5 12:10:20 10° S 12:16:42 72° E 12:23:01 10° NNE
ATLAS 2AS CENTAUR R/B 3.3 12:11:41 10° SSW 12:18:44 68° ESE 12:25:36 10° NE
Cosmos 1092 Rocket 4.1 22:33:10 10° N 22:39:20 83° W 22:45:27 10° S
Cosmos 1570 Rocket 4.3 22:36:02 10° N 22:41:13 49° ENE 22:46:19 10° SE
Cosmos 1486 Rocket 4.1 22:43:09 10° S 22:48:15 62° ESE 22:53:25 10° NNE
Cosmos 2228 3.7 22:45:11 10° SSW 22:49:19 57° W 22:53:31 10° N
CZ-4C R/B 3.8 22:45:36 10° NNW 22:51:38 29° NE 22:58:45 10° E
Cosmos 2098 Rocket 2.7 22:53:54 10° S 22:57:32 71° E 23:01:52 10° N
Cosmos 2360 4.2 22:53:36 10° SSW 22:59:18 80° ESE 23:05:02 10° NNE
Cosmos 1758 Rocket 3.5 22:55:39 10° N 22:59:55 65° E 23:04:10 10° SSE
ARIANE 6 FM1 Upper Stage 4.0 22:56:20 10° NW 23:00:07 43° WSW 23:03:58 10° SSE
CORIOLIS 4.1 22:54:57 10° SSE 23:00:17 78° ENE 23:05:37 10° N
USA 290 3.5 22:58:01 10° NNE 23:00:31 20° ENE 23:03:02 10° ESE
CZ-2D R/B 3.0 23:00:45 10° SSE 23:03:43 44° ENE 23:06:44 10° N
Helios 1A Rocket 4.5 23:05:51 12° E 23:05:51 12° E 23:07:01 10° ESE
Cosmos 773 Rocket 4.0 23:00:51 10° N 23:05:59 57° ENE 23:11:08 10° SSE
ARIANE 5 R/B 2.5 23:01:37 10° SSE 23:06:34 63° ENE 23:11:36 10° N
Cosmos 2227 Rocket 3.4 23:04:11 10° N 23:08:16 20° NE 23:12:20 10° E
AQUARIUS 4.3 23:05:45 10° SSE 23:09:58 49° ENE 23:14:14 10° N
SPOT 1/Viking Rocket 4.2 23:05:59 10° SE 23:10:31 32° ENE 23:15:05 10° N
Cosmos 2266 Rocket 4.0 23:07:25 10° N 23:13:26 53° E 23:19:18 10° SSE
Cosmos 1607 4.4 23:07:50 10° NNW 23:13:40 40° NE 23:19:32 10° ESE
CENTAUR R/B 4.3 23:09:57 10° W 23:14:20 21° NNW 23:19:28 10° NNE
Cosmos 2208 Rocket 3.9 23:10:18 10° NNW 23:15:27 71° ENE 23:20:37 10° SSE
Cosmos 990 Rocket 4.4 23:10:54 10° S 23:15:36 39° ESE 23:20:05 11° NE
SL-16 R/B 4.0 23:11:00 10° N 23:16:36 36° WNW 23:22:09 10° SW
USA 238 DEB 4.4 23:12:29 10° SSE 23:17:21 27° ESE 23:20:47 17° ENE
USA 238 4.4 23:12:37 10° SSE 23:17:27 26° ESE 23:20:51 17° ENE
ATLAS CENTAUR R/B 1.3 23:16:17 10° NNW 23:19:16 33° NE 23:21:23 15° ESE
Cosmos 1743 2.1 23:17:36 10° N 23:20:52 84° E 23:24:04 10° S
NOSS 2-3 (C) 4.3 23:18:52 10° S 23:21:45 23° ESE 23:22:41 20° E
Cosmos 1697 Rocket 2.8 23:16:30 10° S 23:21:57 55° ESE 23:27:10 11° NNE
BlueWalker 3 2.3 23:18:45 10° NW 23:22:10 38° NE 23:24:05 21° E
Cosmos 1626 Rocket 4.4 23:19:52 10° NNW 23:24:05 52° W 23:28:14 10° S
SMAP 3.7 23:20:54 10° S 23:25:29 61° W 23:30:06 10° NNW
Cosmos 1606 Rocket 3.6 23:23:17 10° S 23:27:34 58° E 23:31:54 10° NNE
SAR-Lupe-3 3.6 23:26:08 16° N 23:28:04 84° WNW 23:30:34 10° SSW
Cosmos 1461 2.8 23:25:15 10° SW 23:29:05 77° WNW 23:32:06 16° NNE
Cosmos 2151 2.8 23:25:07 10° N 23:29:18 82° E 23:33:26 10° S
Gbstr 26 Del rocket 2.6 23:25:22 10° SW 23:29:32 83° SE 23:31:38 25° NE
Landsat 7 4.1 23:26:55 10° S 23:31:32 70° WSW 23:36:11 10° NNW
IRS-1C 4.3 23:26:30 10° S 23:31:49 77° WSW 23:37:09 10° NNW
Meteor 1-20 Rocket 4.0 23:28:45 10° N 23:34:13 79° E 23:39:41 10° SSE
Resurs 1-3 4.2 23:31:43 10° SE 23:35:32 32° ENE 23:39:22 10° N
Cosmos 1076 Rocket 4.2 23:33:53 10° NNE 23:37:40 30° ENE 23:41:27 10° SE
Okean 1-7 Rocket 3.4 23:37:54 10° N 23:42:18 80° E 23:46:39 10° S
CZ-4 R/B 4.2 23:47:07 10° SSE 23:51:03 84° ENE 23:55:00 10° N
BREEZE-M DEB (TANK) 3.7 23:51:50 10° NW 23:52:22 13° NNW 23:52:22 13° NNW
Cosmos 1726 Rocket 3.6 23:49:21 10° S 23:53:59 85° E 23:58:20 12° N
